{"data":{"norad_id":68476,"intl_designator":"2026-067BN","name":"LEMUR-2-JULIA-JOEL","alt_names":[],"object_type":"PAYLOAD","status":"ACTIVE","operator":null,"country":"LUXE","launch_date":"2026-03-30","launch_site_code":"AFWTR","launch_vehicle":null,"mission":null,"orbit_class":"UNKNOWN","rcs_meters":null,"size_class":null,"mass_kg":null,"dimensions":null,"purposes":[],"wikipedia_slug":null,"has_3d_model":false,"image_url":null,"decayed_at":null,"tle_current":{"epoch":"2026-05-25T03:38:05.908128Z","epoch_age_seconds":65476,"freshness":"FRESH","line1":"1 68476U 26067BN  26145.15145727  .00003582  00000+0  35401-3 0  9995","line2":"2 68476  97.7544 103.7956 0002446  26.7768 333.3577 14.92540289  8296","mean_motion":14.92540289,"eccentricity":0.0002446,"inclination_deg":97.7544,"raan_deg":103.7956,"arg_perigee_deg":26.7768,"mean_anomaly_deg":333.3577,"bstar":0.00035401,"rev_number":829,"period_min":96.479807654961,"perigee_km":588.31353581366,"apogee_km":591.72235721349,"semimajor_km":6968.1549465136,"source":"CELESTRAK","updated_at":"2026-05-25T13:38:07.850349Z"}}}